BEIDOU-3 M3 (C21)

Last updated on Sat Oct 18 2025 00:03:30 GMT+0000 (Coordinated Universal Time)

1 43208U 18018B 25290.02715979 -.00000009 00000+0 00000+0 0 9991 2 43208 56.4374 71.1832 0005099 331.9031 28.0637 1.86231185 52214
UTC large
Height (km)
Speed (km/s)
/
Latitude / Longitude
Inclination (degrees)
Orbital Period (minutes)
Azimuth
Elevation
Range (km)
Doppler Factor

Next 0 passes for location: London (51.5072 / 0.1276)

Sorry there are no passes over London.